Home   Weather   Chelyabinsk   Past weeks

Flag for Russia Past Weather in Chelyabinsk, Russia — Yesterday and Last 2 Weeks

Now
52 °F

Passing clouds.


Feels Like: 49 °F
Forecast: 39 / 53 °F
Wind: 8 mph from Southeast

Location: Chelyabinsk-Balandino

Current Time: Apr 25, 2017 at 6:28:26 am

Latest Report: Apr 25, 2017 at 6:00 am


Visibility: N/A

Pressure: 29.65 "Hg

Humidity: 82%

Dew Point: 46 °F

Location of ChelyabinskLocation

Past Weather in Chelyabinsk — Graph

°F

Chelyabinsk Temperature Yesterday

Maximum temperature yesterday: 55 °F (at 6:00 pm)
Minimum temperature yesterday: 36 °F (at 12:00 am)
Average temperature yesterday: 46 °F

High & Low Weather Summary for the Past Weeks

 TemperatureHumidityPressure
High68 °F (Apr 20, 4:00 pm)100% (Apr 10, 9:00 pm)30.18 "Hg (Apr 10, 9:00 pm)
Low23 °F (Apr 22, 5:00 am)22% (Apr 22, 5:00 pm)29.15 "Hg (Apr 15, 11:00 pm)
Average44 °F61%29.82 "Hg
* Reported Apr 10 5:00 am — Apr 25 5:00 am, Chelyabinsk, Weather by CustomWeather, © 2017

Note: Actual official high and low records may vary slightly from our data, if they occured in-between our weather recording intervals... More about our weather records

Advertising

Chelyabinsk Weather History for the Previous 24 Hours

Scroll right to see more
 ConditionsComfort  
Time TempWeatherWind HumidityBarometerVisibility
5:00 am
Tue, Apr 25
52 °FPassing clouds.10 mph77%29.62 "HgN/A
4:30 am54 °FPassing clouds.13 mph67%29.62 "HgN/A
3:30 am52 °FPassing clouds.8 mph72%29.65 "HgN/A
3:00 am52 °FPassing clouds.8 mph72%29.62 "HgN/A
2:30 am50 °FPassing clouds.10 mph76%29.65 "HgN/A
2:00 am50 °FPassing clouds.10 mph71%29.65 "HgN/A
1:30 am50 °FPassing clouds.8 mph71%29.68 "HgN/A
1:00 am50 °FSprinkles. Passing clouds.6 mph76%29.68 "HgN/A
12:30 am50 °FLight rain. Passing clouds.10 mph71%29.68 "HgN/A
12:00 am52 °FClear.13 mph67%29.71 "Hg10 mi
11:30 pm
Mon, Apr 24
54 °FClear.15 mph63%29.71 "Hg10 mi
11:00 pm54 °FClear.13 mph63%29.71 "Hg10 mi
10:30 pm52 °FClear.13 mph67%29.74 "Hg10 mi
10:00 pm52 °FClear.13 mph67%29.77 "Hg10 mi
9:30 pm54 °FClear.10 mph63%29.77 "Hg10 mi
9:00 pm54 °FSunny.13 mph63%29.77 "Hg10 mi
8:30 pm54 °FSunny.15 mph63%29.77 "Hg10 mi
8:00 pm55 °FSunny.15 mph55%29.77 "Hg10 mi
7:30 pm55 °FSunny.15 mph55%29.80 "Hg10 mi
7:00 pm55 °FScattered clouds.15 mph59%29.80 "HgN/A
6:30 pm55 °FScattered clouds.13 mph55%29.83 "HgN/A
6:00 pm55 °FScattered clouds.10 mph55%29.83 "HgN/A
5:00 pm52 °FScattered clouds.13 mph72%29.86 "HgN/A
4:30 pm52 °FScattered clouds.13 mph77%29.89 "HgN/A
4:00 pm50 °FLight rain. Scattered clouds.8 mph76%29.92 "HgN/A
3:30 pm50 °FSprinkles. Scattered clouds.8 mph76%29.95 "HgN/A
3:00 pm50 °FSunny.10 mph71%29.98 "Hg10 mi
2:30 pm50 °FSunny.13 mph62%29.98 "Hg10 mi
2:00 pm50 °FSunny.10 mph62%29.98 "Hg10 mi
1:30 pm50 °FScattered clouds.15 mph50%29.98 "HgN/A
1:00 pm52 °FScattered clouds.15 mph47%29.98 "HgN/A
12:30 pm48 °FScattered clouds.13 mph54%30.01 "HgN/A
12:00 pm48 °FScattered clouds.10 mph62%30.01 "HgN/A
11:30 am46 °FScattered clouds.8 mph66%30.01 "HgN/A
11:00 am46 °FScattered clouds.8 mph66%30.01 "HgN/A
10:30 am45 °FSunny.6 mph71%30.04 "Hg10 mi
10:00 am45 °FSunny.6 mph71%30.04 "Hg10 mi
9:30 am45 °FSunny.6 mph71%30.04 "Hg10 mi
9:00 am43 °FSunny.3 mph81%30.04 "Hg10 mi
8:30 am43 °FSunny.6 mph76%30.01 "Hg10 mi
7:30 am37 °FScattered clouds.1 mph93%30.01 "HgN/A
7:00 am39 °FScattered clouds.1 mph87%30.01 "HgN/A
6:30 am37 °FScattered clouds.1 mph87%29.98 "HgN/A
6:00 am37 °FPassing clouds.3 mph87%29.98 "HgN/A
Weather by CustomWeather, © 2017

See weather overviewHow to use our weather pages